Home > Weather > Frechen > Past weeks

Flag for Germany Weather for the Past 2 Weeks in Frechen, North Rhine-Westphalia, Germany

Now
36 °F

Passing clouds.


Feels Like: 36 °F
Forecast: 33 / 43 °F
Wind: 2 mph from North

Location: Noervenich

Current Time: Feb 12, 2016 at 7:03:26 AM

Latest Report: Feb 12, 2016 at 6:20 AM


Visibility: N/A

Pressure: 29.62 "Hg

Humidity: 81%

Dew point: 30 °F

Location of FrechenLocation

Historic Weather in Frechen — Graph

°F

Frechen Temperature Yesterday

Maximum temperature yesterday: 45 °F (at 12:20 PM)
Minimum temperature yesterday: 37 °F (at 5:20 AM)
Average temperature yesterday: 40 °F

High & Low Weather Summary for the Past Weeks

 TemperatureHumidityPressure
High54 °F (Jan 31, 10:20 PM)100% (Feb 2, 9:20 AM)30.33 "Hg (Feb 2, 9:20 AM)
Low34 °F (Jan 29, 1:20 AM)50% (Feb 7, 4:20 PM)28.85 "Hg (Feb 9, 3:20 PM)
Average45 °F78%29.85 "Hg
* Reported Jan 28 4:20 AM — Feb 12 4:20 AM, Frechen, Weather by CustomWeather, © 2016

Note: Actual official high and low records may vary slightly from our data, if they occured in-between our weather recording intervals... More about our weather records

Advertising

Frechen Weather History for the Previous 24 Hours

 ConditionsComfort  
Time TempWeatherWind HumidityBarometerVisibility
4:20 AM
Fri, Feb 12
36 °FPassing clouds.2 mph87%29.62 "HgN/A
3:20 AM37 °FPartly cloudy.2 mph87%29.65 "HgN/A
2:20 AM37 °FLight rain. Partly cloudy.7 mph87%29.65 "HgN/A
1:20 AM37 °FPassing clouds.3 mph81%29.65 "HgN/A
12:20 AM37 °FPassing clouds.3 mph81%29.68 "HgN/A
11:20 PM
Thu, Feb 11
37 °FPassing clouds.5 mph81%29.68 "HgN/A
10:20 PM37 °FPartly cloudy.3 mph81%29.68 "HgN/A
9:20 PM37 °FPartly cloudy.3 mph87%29.68 "HgN/A
8:20 PM39 °FPartly cloudy.3 mph81%29.68 "HgN/A
7:20 PM41 °FPartly cloudy.6 mph76%29.68 "HgN/A
6:20 PM41 °FSprinkles. Partly cloudy.2 mph76%29.68 "HgN/A
5:20 PM41 °FBroken clouds.3 mph76%29.68 "HgN/A
4:20 PM43 °FBroken clouds.5 mph71%29.68 "HgN/A
3:20 PM45 °FBroken clouds.7 mph66%29.68 "HgN/A
2:20 PM45 °FBroken clouds.7 mph61%29.68 "HgN/A
1:20 PM45 °FBroken clouds.9 mph66%29.68 "HgN/A
12:20 PM45 °FBroken clouds.9 mph66%29.68 "HgN/A
11:20 AM43 °FPartly sunny.10 mph76%29.68 "HgN/A
10:20 AM41 °FPartly sunny.8 mph76%29.68 "HgN/A
9:20 AM39 °FPassing clouds.5 mph81%29.68 "HgN/A
8:20 AM37 °FPassing clouds.7 mph87%29.65 "HgN/A
7:20 AM37 °FPassing clouds.6 mph87%29.65 "HgN/A
Weather by CustomWeather, © 2016

See weather overviewHow to use our weather pages